Погода в Фаридабаде

Индия     28°23′16″N   77°19′04″E
темп.,
°C
ветер,
м/с
пор.,
м/с
влажн.,
%
обл.,
%
осадки,
мм/ч
давл.,
гПа
погр.,
м
9 мая, вс
вс923:30+35св3420100 0.0 1005574
02:30+32ююв242731 0.0 1005167
05:30+30юв24305 0.0 1005210
08:30+33юв34262 0.0 1007581
11:30+38юв13180 0.0 10072665
14:30+40ссз341435 0.0 10033994
17:30+36в441685 0.1 1001483
20:30+32ссв7112833 0.3 1004460
10 мая, пн
пн1023:30+33зюз00246 0.4 1003179
02:30+32ссв23260 0.0 1002150
05:30+30вюв222951 0.0 1004209
08:30+33ссв11243 0.1 1005445
11:30+38ю231791 0.1 10041190
14:30+40с36139 0.0 10003672
17:30+36ююз10102046 0.0 999964
20:30+35юз592086 0.0 1000547
11 мая, вт
вт1123:30+34зюз5112012 0.1 1000660
02:30+33зюз492263 0.0 1000449
05:30+32сз3925100 0.0 1001515
08:30+35сз2321100 0.0 1003717
11:30+38сз231680 0.0 10021577
14:30+41з251319 0.0 9993226
17:30+40юз771585 0.0 9962868
20:30+32ююв583291 0.8 1000225
12 мая, ср
ср1223:30+32всв453163 3.3 1001280
02:30+32юз3529100 0.9 999203
05:30+31ю2430100 0.9 1000238
08:30+33зсз222788 0.7 1002692
11:30+37в3222100 0.7 10011579
14:30+39юв251876 0.0 9974244
17:30+29с3442100 4.3 1000747
20:30+25ссв3361100 0.0 1002581
13 мая, чт
чт1323:30+26юв3458100 0.0 1001554
02:30+27ююв3552100 0.0 1001631
05:30+26вюв335388 0.0 1002534
08:30+28юв44470 0.0 10041107
11:30+33ю11330 0.0 10031527
14:30+36ссз23263 0.0 10012192
17:30+36с33240 0.0 9992135
20:30+31юв67372 0.1 1000606